owner,sensor,date,latitude,longitude,vertical_datum,sea_water_temperature,qcFlag
Shell,ioos:station:wmo:42902:1,2023-06-01T00:07:00Z,28.0124,-89.0597,0.0,25.5,11111222
Shell,ioos:station:wmo:42902:1,2023-06-01T00:17:00Z,28.0124,-89.0597,0.0,25.5,11111222
Shell,ioos:station:wmo:42902:1,2023-06-01T00:27:00Z,28.0124,-89.0597,0.0,25.7,11111222
Shell,ioos:station:wmo:42902:1,2023-06-01T00:37:00Z,28.0124,-89.0597,0.0,25.9,11111222
Shell,ioos:station:wmo:42902:1,2023-06-01T00:47:00Z,28.0124,-89.0597,0.0,25.9,11111222
Shell,ioos:station:wmo:42902:1,2023-06-01T00:57:00Z,28.0124,-89.0597,0.0,25.7,11111222
Shell,ioos:station:wmo:42902:1,2023-06-01T01:07:00Z,28.0124,-89.0597,0.0,25.9,11111222
Shell,ioos:station:wmo:42902:1,2023-06-01T01:17:00Z,28.0124,-89.0597,0.0,26.0,11111222
Shell,ioos:station:wmo:42902:1,2023-06-01T01:27:00Z,28.0124,-89.0597,0.0,25.9,11111222
Shell,ioos:station:wmo:42902:1,2023-06-01T01:37:00Z,28.0124,-89.0597,0.0,25.7,11111222
Shell,ioos:station:wmo:42902:1,2023-06-01T01:47:00Z,28.0124,-89.0597,0.0,25.7,11111222
Shell,ioos:station:wmo:42902:1,2023-06-01T01:57:00Z,28.0124,-89.0597,0.0,25.6,11111222
Shell,ioos:station:wmo:42902:1,2023-06-01T02:07:00Z,28.0124,-89.0597,0.0,25.6,11111222
Shell,ioos:station:wmo:42902:1,2023-06-01T02:17:00Z,28.0124,-89.0597,0.0,25.6,11111222
Shell,ioos:station:wmo:42902:1,2023-06-01T02:27:00Z,28.0124,-89.0597,0.0,25.6,11111222
Shell,ioos:station:wmo:42902:1,2023-06-01T02:37:00Z,28.0124,-89.0597,0.0,25.8,11111222
Shell,ioos:station:wmo:42902:1,2023-06-01T02:47:00Z,28.0124,-89.0597,0.0,25.9,11111222
Shell,ioos:station:wmo:42902:1,2023-06-01T02:57:00Z,28.0124,-89.0597,0.0,25.9,11111222
Shell,ioos:station:wmo:42902:1,2023-06-01T03:07:00Z,28.0124,-89.0597,0.0,26.1,11111222
Shell,ioos:station:wmo:42902:1,2023-06-01T03:17:00Z,28.0124,-89.0597,0.0,26.1,11111222
Shell,ioos:station:wmo:42902:1,2023-06-01T03:27:00Z,28.0124,-89.0597,0.0,26.1,11111222
Shell,ioos:station:wmo:42902:1,2023-06-01T03:37:00Z,28.0124,-89.0597,0.0,26.0,11111222
Shell,ioos:station:wmo:42902:1,2023-06-01T03:47:00Z,28.0124,-89.0597,0.0,26.0,11111222
Shell,ioos:station:wmo:42902:1,2023-06-01T03:57:00Z,28.0124,-89.0597,0.0,26.2,11111222
Shell,ioos:station:wmo:42902:1,2023-06-01T04:07:00Z,28.0124,-89.0597,0.0,26.5,11111222
Shell,ioos:station:wmo:42902:1,2023-06-01T04:17:00Z,28.0124,-89.0597,0.0,26.6,11111222
Shell,ioos:station:wmo:42902:1,2023-06-01T04:27:00Z,28.0124,-89.0597,0.0,26.6,11111222
Shell,ioos:station:wmo:42902:1,2023-06-01T04:37:00Z,28.0124,-89.0597,0.0,26.6,11111222
Shell,ioos:station:wmo:42902:1,2023-06-01T04:47:00Z,28.0124,-89.0597,0.0,26.4,11111222
Shell,ioos:station:wmo:42902:1,2023-06-01T04:57:00Z,28.0124,-89.0597,0.0,26.3,11111222
Shell,ioos:station:wmo:42902:1,2023-06-01T05:07:00Z,28.0124,-89.0597,0.0,26.3,11111222
Shell,ioos:station:wmo:42902:1,2023-06-01T05:17:00Z,28.0124,-89.0597,0.0,26.1,11111222
Shell,ioos:station:wmo:42902:1,2023-06-01T05:27:00Z,28.0124,-89.0597,0.0,26.2,11111222
Shell,ioos:station:wmo:42902:1,2023-06-01T05:37:00Z,28.0124,-89.0597,0.0,26.5,11111222
Shell,ioos:station:wmo:42902:1,2023-06-01T05:47:00Z,28.0124,-89.0597,0.0,26.6,11111222
Shell,ioos:station:wmo:42902:1,2023-06-01T05:57:00Z,28.0124,-89.0597,0.0,26.6,11111222
Shell,ioos:station:wmo:42902:1,2023-06-01T06:07:00Z,28.0124,-89.0597,0.0,26.6,11111222
Shell,ioos:station:wmo:42902:1,2023-06-01T06:17:00Z,28.0124,-89.0597,0.0,26.6,11111222
Shell,ioos:station:wmo:42902:1,2023-06-01T06:27:00Z,28.0124,-89.0597,0.0,26.6,11111222
Shell,ioos:station:wmo:42902:1,2023-06-01T06:38:00Z,28.0124,-89.0597,0.0,26.6,11111222
Shell,ioos:station:wmo:42902:1,2023-06-01T06:48:00Z,28.0124,-89.0597,0.0,26.6,11111222
Shell,ioos:station:wmo:42902:1,2023-06-01T06:58:00Z,28.0124,-89.0597,0.0,26.7,11111222
Shell,ioos:station:wmo:42902:1,2023-06-01T07:08:00Z,28.0124,-89.0597,0.0,26.7,11111222
Shell,ioos:station:wmo:42902:1,2023-06-01T07:18:00Z,28.0124,-89.0597,0.0,26.7,11111222
Shell,ioos:station:wmo:42902:1,2023-06-01T07:28:00Z,28.0124,-89.0597,0.0,26.6,11111222
Shell,ioos:station:wmo:42902:1,2023-06-01T07:38:00Z,28.0124,-89.0597,0.0,26.6,11111222
Shell,ioos:station:wmo:42902:1,2023-06-01T07:48:00Z,28.0124,-89.0597,0.0,26.6,11111222
Shell,ioos:station:wmo:42902:1,2023-06-01T07:58:00Z,28.0124,-89.0597,0.0,26.6,11111222
Shell,ioos:station:wmo:42902:1,2023-06-01T08:08:00Z,28.0124,-89.0597,0.0,26.6,11111222
Shell,ioos:station:wmo:42902:1,2023-06-01T08:18:00Z,28.0124,-89.0597,0.0,26.6,11111222
Shell,ioos:station:wmo:42902:1,2023-06-01T08:28:00Z,28.0124,-89.0597,0.0,26.7,11111222
Shell,ioos:station:wmo:42902:1,2023-06-01T08:38:00Z,28.0124,-89.0597,0.0,26.6,11111222
Shell,ioos:station:wmo:42902:1,2023-06-01T08:48:00Z,28.0124,-89.0597,0.0,26.6,11111222
Shell,ioos:station:wmo:42902:1,2023-06-01T08:58:00Z,28.0124,-89.0597,0.0,26.6,11111222
Shell,ioos:station:wmo:42902:1,2023-06-01T09:08:00Z,28.0124,-89.0597,0.0,26.6,11111222
Shell,ioos:station:wmo:42902:1,2023-06-01T09:18:00Z,28.0124,-89.0597,0.0,26.6,11111222
Shell,ioos:station:wmo:42902:1,2023-06-01T09:28:00Z,28.0124,-89.0597,0.0,26.6,11111222
Shell,ioos:station:wmo:42902:1,2023-06-01T09:38:00Z,28.0124,-89.0597,0.0,26.6,11111222
Shell,ioos:station:wmo:42902:1,2023-06-01T09:48:00Z,28.0124,-89.0597,0.0,26.5,11111222
Shell,ioos:station:wmo:42902:1,2023-06-01T09:58:00Z,28.0124,-89.0597,0.0,26.5,11111222
Shell,ioos:station:wmo:42902:1,2023-06-01T10:08:00Z,28.0124,-89.0597,0.0,26.5,11111222
Shell,ioos:station:wmo:42902:1,2023-06-01T10:18:00Z,28.0124,-89.0597,0.0,26.5,11111222
Shell,ioos:station:wmo:42902:1,2023-06-01T10:28:00Z,28.0124,-89.0597,0.0,26.5,11111222
Shell,ioos:station:wmo:42902:1,2023-06-01T10:38:00Z,28.0124,-89.0597,0.0,26.4,11111222
Shell,ioos:station:wmo:42902:1,2023-06-01T10:48:00Z,28.0124,-89.0597,0.0,26.5,11111222
Shell,ioos:station:wmo:42902:1,2023-06-01T10:58:00Z,28.0124,-89.0597,0.0,26.5,11111222
Shell,ioos:station:wmo:42902:1,2023-06-01T11:08:00Z,28.0124,-89.0597,0.0,26.5,11111222
Shell,ioos:station:wmo:42902:1,2023-06-01T11:18:00Z,28.0124,-89.0597,0.0,26.5,11111222
Shell,ioos:station:wmo:42902:1,2023-06-01T11:28:00Z,28.0124,-89.0597,0.0,26.5,11111222
Shell,ioos:station:wmo:42902:1,2023-06-01T11:38:00Z,28.0124,-89.0597,0.0,26.5,11111222
Shell,ioos:station:wmo:42902:1,2023-06-01T11:48:00Z,28.0124,-89.0597,0.0,26.5,11111222
Shell,ioos:station:wmo:42902:1,2023-06-01T11:58:00Z,28.0124,-89.0597,0.0,26.4,11111222
Shell,ioos:station:wmo:42902:1,2023-06-01T12:08:00Z,28.0124,-89.0597,0.0,26.5,11111222
Shell,ioos:station:wmo:42902:1,2023-06-01T12:18:00Z,28.0124,-89.0597,0.0,26.4,11111222
Shell,ioos:station:wmo:42902:1,2023-06-01T12:28:00Z,28.0124,-89.0597,0.0,26.1,11111222
Shell,ioos:station:wmo:42902:1,2023-06-01T12:38:00Z,28.0124,-89.0597,0.0,26.2,11111222
Shell,ioos:station:wmo:42902:1,2023-06-01T12:48:00Z,28.0124,-89.0597,0.0,26.0,11111222
Shell,ioos:station:wmo:42902:1,2023-06-01T12:58:00Z,28.0124,-89.0597,0.0,25.7,11111222
Shell,ioos:station:wmo:42902:1,2023-06-01T13:08:00Z,28.0124,-89.0597,0.0,25.9,11111222
Shell,ioos:station:wmo:42902:1,2023-06-01T13:18:00Z,28.0124,-89.0597,0.0,26.1,11111222
Shell,ioos:station:wmo:42902:1,2023-06-01T13:28:00Z,28.0124,-89.0597,0.0,26.1,11111222
Shell,ioos:station:wmo:42902:1,2023-06-01T13:38:00Z,28.0124,-89.0597,0.0,26.1,11111222
Shell,ioos:station:wmo:42902:1,2023-06-01T13:48:00Z,28.0124,-89.0597,0.0,26.2,11111222
Shell,ioos:station:wmo:42902:1,2023-06-01T13:59:00Z,28.0124,-89.0597,0.0,26.1,11111222
Shell,ioos:station:wmo:42902:1,2023-06-01T14:09:00Z,28.0124,-89.0597,0.0,25.9,11111222
Shell,ioos:station:wmo:42902:1,2023-06-01T14:19:00Z,28.0124,-89.0597,0.0,26.0,11111222
Shell,ioos:station:wmo:42902:1,2023-06-01T14:29:00Z,28.0124,-89.0597,0.0,26.0,11111222
Shell,ioos:station:wmo:42902:1,2023-06-01T14:39:00Z,28.0124,-89.0597,0.0,25.9,11111222
Shell,ioos:station:wmo:42902:1,2023-06-01T14:49:00Z,28.0124,-89.0597,0.0,26.1,11111222
Shell,ioos:station:wmo:42902:1,2023-06-01T14:59:00Z,28.0124,-89.0597,0.0,26.1,11111222
Shell,ioos:station:wmo:42902:1,2023-06-01T15:09:00Z,28.0124,-89.0597,0.0,25.9,11111222
Shell,ioos:station:wmo:42902:1,2023-06-01T15:19:00Z,28.0124,-89.0597,0.0,26.3,11111222
Shell,ioos:station:wmo:42902:1,2023-06-01T15:29:00Z,28.0124,-89.0597,0.0,26.2,11111222
Shell,ioos:station:wmo:42902:1,2023-06-01T15:39:00Z,28.0124,-89.0597,0.0,26.2,11111222
Shell,ioos:station:wmo:42902:1,2023-06-01T15:49:00Z,28.0124,-89.0597,0.0,26.1,11111222
Shell,ioos:station:wmo:42902:1,2023-06-01T15:59:00Z,28.0124,-89.0597,0.0,26.2,11111222
Shell,ioos:station:wmo:42902:1,2023-06-01T16:09:00Z,28.0124,-89.0597,0.0,26.4,11111222
Shell,ioos:station:wmo:42902:1,2023-06-01T16:19:00Z,28.0124,-89.0597,0.0,26.3,11111222
Shell,ioos:station:wmo:42902:1,2023-06-01T16:29:00Z,28.0124,-89.0597,0.0,26.4,11111222
Shell,ioos:station:wmo:42902:1,2023-06-01T16:39:00Z,28.0124,-89.0597,0.0,26.4,11111222
Shell,ioos:station:wmo:42902:1,2023-06-01T16:49:00Z,28.0124,-89.0597,0.0,26.3,11111222
Shell,ioos:station:wmo:42902:1,2023-06-01T16:59:00Z,28.0124,-89.0597,0.0,26.3,11111222
Shell,ioos:station:wmo:42902:1,2023-06-01T17:09:00Z,28.0124,-89.0597,0.0,26.3,11111222
Shell,ioos:station:wmo:42902:1,2023-06-01T17:19:00Z,28.0124,-89.0597,0.0,26.2,11111222
Shell,ioos:station:wmo:42902:1,2023-06-01T17:29:00Z,28.0124,-89.0597,0.0,26.3,11111222
Shell,ioos:station:wmo:42902:1,2023-06-01T17:39:00Z,28.0124,-89.0597,0.0,26.2,11111222
Shell,ioos:station:wmo:42902:1,2023-06-01T17:49:00Z,28.0124,-89.0597,0.0,26.3,11111222
Shell,ioos:station:wmo:42902:1,2023-06-01T17:59:00Z,28.0124,-89.0597,0.0,26.3,11111222
Shell,ioos:station:wmo:42902:1,2023-06-01T18:09:00Z,28.0124,-89.0597,0.1,26.5,11111222
Shell,ioos:station:wmo:42902:1,2023-06-01T18:19:00Z,28.0124,-89.0597,0.0,26.5,11111222
Shell,ioos:station:wmo:42902:1,2023-06-01T18:29:00Z,28.0124,-89.0597,0.0,26.4,11111222
Shell,ioos:station:wmo:42902:1,2023-06-01T18:39:00Z,28.0124,-89.0597,0.0,26.4,11111222
Shell,ioos:station:wmo:42902:1,2023-06-01T18:49:00Z,28.0124,-89.0597,0.0,26.4,11111222
Shell,ioos:station:wmo:42902:1,2023-06-01T18:59:00Z,28.0124,-89.0597,0.0,26.4,11111222
Shell,ioos:station:wmo:42902:1,2023-06-01T19:09:00Z,28.0124,-89.0597,0.0,26.3,11111222
Shell,ioos:station:wmo:42902:1,2023-06-01T19:19:00Z,28.0124,-89.0597,0.0,26.4,11111222
Shell,ioos:station:wmo:42902:1,2023-06-01T19:29:00Z,28.0124,-89.0597,0.0,26.2,11111222
Shell,ioos:station:wmo:42902:1,2023-06-01T19:39:00Z,28.0124,-89.0597,0.0,26.4,11111222
Shell,ioos:station:wmo:42902:1,2023-06-01T19:49:00Z,28.0124,-89.0597,0.0,26.3,11111222
Shell,ioos:station:wmo:42902:1,2023-06-01T19:59:00Z,28.0124,-89.0597,0.0,26.2,11111222
Shell,ioos:station:wmo:42902:1,2023-06-01T20:09:00Z,28.0124,-89.0597,0.0,26.5,11111222
Shell,ioos:station:wmo:42902:1,2023-06-01T20:19:00Z,28.0124,-89.0597,0.0,26.5,11111222
Shell,ioos:station:wmo:42902:1,2023-06-01T20:29:00Z,28.0124,-89.0597,0.0,26.5,11111222
Shell,ioos:station:wmo:42902:1,2023-06-01T20:39:00Z,28.0124,-89.0597,0.0,26.4,11111222
Shell,ioos:station:wmo:42902:1,2023-06-01T20:49:00Z,28.0124,-89.0597,0.0,26.4,11111222
Shell,ioos:station:wmo:42902:1,2023-06-01T20:59:00Z,28.0124,-89.0597,0.0,26.4,11111222
Shell,ioos:station:wmo:42902:1,2023-06-01T21:09:00Z,28.0124,-89.0597,0.0,26.2,11111222
Shell,ioos:station:wmo:42902:1,2023-06-01T21:20:00Z,28.0124,-89.0597,0.0,26.4,11111222
Shell,ioos:station:wmo:42902:1,2023-06-01T21:30:00Z,28.0124,-89.0597,0.1,26.4,11111222
Shell,ioos:station:wmo:42902:1,2023-06-01T21:40:00Z,28.0124,-89.0597,0.1,26.4,11111222
Shell,ioos:station:wmo:42902:1,2023-06-01T21:50:00Z,28.0124,-89.0597,0.0,26.6,11111222
Shell,ioos:station:wmo:42902:1,2023-06-01T22:00:00Z,28.0124,-89.0597,0.0,26.7,11111222
Shell,ioos:station:wmo:42902:1,2023-06-01T22:10:00Z,28.0124,-89.0597,0.0,26.7,11111222
Shell,ioos:station:wmo:42902:1,2023-06-01T22:20:00Z,28.0124,-89.0597,0.0,26.8,11111222
Shell,ioos:station:wmo:42902:1,2023-06-01T22:30:00Z,28.0124,-89.0597,0.0,26.8,11111222
Shell,ioos:station:wmo:42902:1,2023-06-01T22:40:00Z,28.0124,-89.0597,0.0,26.8,11111222
Shell,ioos:station:wmo:42902:1,2023-06-01T22:50:00Z,28.0124,-89.0597,0.0,26.7,11111222
Shell,ioos:station:wmo:42902:1,2023-06-01T23:00:00Z,28.0124,-89.0597,0.0,26.8,11111222
Shell,ioos:station:wmo:42902:1,2023-06-01T23:10:00Z,28.0124,-89.0597,0.0,26.8,11111222
Shell,ioos:station:wmo:42902:1,2023-06-01T23:20:00Z,28.0124,-89.0597,0.0,26.8,11111222
Shell,ioos:station:wmo:42902:1,2023-06-01T23:30:00Z,28.0124,-89.0597,0.0,26.8,11111222
Shell,ioos:station:wmo:42902:1,2023-06-01T23:40:00Z,28.0124,-89.0597,0.0,26.8,11111222
Shell,ioos:station:wmo:42902:1,2023-06-01T23:50:00Z,28.0124,-89.0597,0.0,26.8,11111222
Shell,ioos:station:wmo:42902:1,2023-06-02T00:00:00Z,28.0124,-89.0597,0.0,26.8,11111222
Shell,ioos:station:wmo:42902:1,2023-06-02T00:10:00Z,28.0124,-89.0597,0.0,26.8,11111222
Shell,ioos:station:wmo:42902:1,2023-06-02T00:20:00Z,28.0124,-89.0597,0.0,26.8,11111222
Shell,ioos:station:wmo:42902:1,2023-06-02T00:30:00Z,28.0124,-89.0597,0.0,26.8,11111222
Shell,ioos:station:wmo:42902:1,2023-06-02T00:40:00Z,28.0124,-89.0597,0.0,26.8,11111222
Shell,ioos:station:wmo:42902:1,2023-06-02T00:50:00Z,28.0124,-89.0597,0.0,26.8,11111222
Shell,ioos:station:wmo:42902:1,2023-06-02T01:00:00Z,28.0124,-89.0597,0.0,26.8,11111222
Shell,ioos:station:wmo:42902:1,2023-06-02T01:10:00Z,28.0124,-89.0597,0.0,26.8,11111222
Shell,ioos:station:wmo:42902:1,2023-06-02T01:20:00Z,28.0124,-89.0597,0.0,26.8,11111222
Shell,ioos:station:wmo:42902:1,2023-06-02T01:30:00Z,28.0124,-89.0597,0.0,26.7,11111222
Shell,ioos:station:wmo:42902:1,2023-06-02T01:40:00Z,28.0124,-89.0597,0.0,26.7,11111222
Shell,ioos:station:wmo:42902:1,2023-06-02T01:50:00Z,28.0124,-89.0597,0.0,26.7,11111222
Shell,ioos:station:wmo:42902:1,2023-06-02T02:00:00Z,28.0124,-89.0597,0.0,26.7,11111222
Shell,ioos:station:wmo:42902:1,2023-06-02T02:10:00Z,28.0124,-89.0597,0.0,26.7,11111222
Shell,ioos:station:wmo:42902:1,2023-06-02T02:20:00Z,28.0124,-89.0597,0.1,26.7,11111222
Shell,ioos:station:wmo:42902:1,2023-06-02T02:30:00Z,28.0124,-89.0597,0.0,26.7,11111222
Shell,ioos:station:wmo:42902:1,2023-06-02T02:40:00Z,28.0124,-89.0597,0.0,26.7,11111222
Shell,ioos:station:wmo:42902:1,2023-06-02T02:50:00Z,28.0124,-89.0597,0.0,26.7,11111222
Shell,ioos:station:wmo:42902:1,2023-06-02T03:00:00Z,28.0124,-89.0597,0.1,26.7,11111222
Shell,ioos:station:wmo:42902:1,2023-06-02T03:10:00Z,28.0124,-89.0597,0.0,26.6,11111222
Shell,ioos:station:wmo:42902:1,2023-06-02T03:20:00Z,28.0124,-89.0597,0.1,26.6,11111222
Shell,ioos:station:wmo:42902:1,2023-06-02T03:30:00Z,28.0124,-89.0597,0.1,26.6,11111222
Shell,ioos:station:wmo:42902:1,2023-06-02T03:40:00Z,28.0124,-89.0597,0.1,26.6,11111222
Shell,ioos:station:wmo:42902:1,2023-06-02T03:50:00Z,28.0124,-89.0597,0.1,26.6,11111222
Shell,ioos:station:wmo:42902:1,2023-06-02T04:00:00Z,28.0124,-89.0597,0.0,26.6,11111222
Shell,ioos:station:wmo:42902:1,2023-06-02T04:10:00Z,28.0124,-89.0597,0.1,26.6,11111222
Shell,ioos:station:wmo:42902:1,2023-06-02T04:20:00Z,28.0124,-89.0597,0.0,26.6,11111222
Shell,ioos:station:wmo:42902:1,2023-06-02T04:30:00Z,28.0124,-89.0597,0.1,26.6,11111222
Shell,ioos:station:wmo:42902:1,2023-06-02T04:41:00Z,28.0124,-89.0597,0.0,26.6,11111222
Shell,ioos:station:wmo:42902:1,2023-06-02T04:51:00Z,28.0124,-89.0597,0.0,26.6,11111222
Shell,ioos:station:wmo:42902:1,2023-06-02T05:01:00Z,28.0124,-89.0597,0.1,26.6,11111222
Shell,ioos:station:wmo:42902:1,2023-06-02T05:11:00Z,28.0124,-89.0597,0.1,26.6,11111222
Shell,ioos:station:wmo:42902:1,2023-06-02T05:21:00Z,28.0124,-89.0597,0.1,26.5,11111222
Shell,ioos:station:wmo:42902:1,2023-06-02T05:31:00Z,28.0124,-89.0597,0.1,26.5,11111222
Shell,ioos:station:wmo:42902:1,2023-06-02T05:41:00Z,28.0124,-89.0597,0.1,26.5,11111222
Shell,ioos:station:wmo:42902:1,2023-06-02T05:51:00Z,28.0124,-89.0597,0.1,26.5,11111222
Shell,ioos:station:wmo:42902:1,2023-06-02T06:01:00Z,28.0124,-89.0597,0.0,26.5,11111222
Shell,ioos:station:wmo:42902:1,2023-06-02T06:11:00Z,28.0124,-89.0597,0.0,26.5,11111222
Shell,ioos:station:wmo:42902:1,2023-06-02T06:21:00Z,28.0124,-89.0597,0.0,26.5,11111222
Shell,ioos:station:wmo:42902:1,2023-06-02T06:31:00Z,28.0124,-89.0597,0.0,26.5,11111222
Shell,ioos:station:wmo:42902:1,2023-06-02T06:41:00Z,28.0124,-89.0597,0.0,26.5,11111222
Shell,ioos:station:wmo:42902:1,2023-06-02T06:51:00Z,28.0124,-89.0597,0.0,26.5,11111222
Shell,ioos:station:wmo:42902:1,2023-06-02T07:11:00Z,28.0124,-89.0597,0.1,26.5,11111222
Shell,ioos:station:wmo:42902:1,2023-06-02T07:21:00Z,28.0124,-89.0597,0.0,26.4,11111222
Shell,ioos:station:wmo:42902:1,2023-06-02T07:31:00Z,28.0124,-89.0597,0.0,26.4,11111222
Shell,ioos:station:wmo:42902:1,2023-06-02T07:41:00Z,28.0124,-89.0597,0.0,26.4,11111222
Shell,ioos:station:wmo:42902:1,2023-06-02T07:51:00Z,28.0124,-89.0597,0.0,26.5,11111222
Shell,ioos:station:wmo:42902:1,2023-06-02T08:01:00Z,28.0124,-89.0597,0.1,26.4,11111222
Shell,ioos:station:wmo:42902:1,2023-06-02T08:11:00Z,28.0124,-89.0597,0.0,26.4,11111222
Shell,ioos:station:wmo:42902:1,2023-06-02T08:21:00Z,28.0124,-89.0597,0.1,26.5,11111222
Shell,ioos:station:wmo:42902:1,2023-06-02T08:31:00Z,28.0124,-89.0597,0.0,26.4,11111222
Shell,ioos:station:wmo:42902:1,2023-06-02T08:41:00Z,28.0124,-89.0597,0.1,26.4,11111222
Shell,ioos:station:wmo:42902:1,2023-06-02T08:51:00Z,28.0124,-89.0597,0.1,26.5,11111222
Shell,ioos:station:wmo:42902:1,2023-06-02T09:01:00Z,28.0124,-89.0597,0.1,26.5,11111222
Shell,ioos:station:wmo:42902:1,2023-06-02T09:11:00Z,28.0124,-89.0597,0.0,26.5,11111222
Shell,ioos:station:wmo:42902:1,2023-06-02T09:21:00Z,28.0124,-89.0597,0.0,26.4,11111222
Shell,ioos:station:wmo:42902:1,2023-06-02T09:31:00Z,28.0124,-89.0597,0.1,26.3,11111222
Shell,ioos:station:wmo:42902:1,2023-06-02T09:41:00Z,28.0124,-89.0597,0.1,26.5,11111222
Shell,ioos:station:wmo:42902:1,2023-06-02T09:51:00Z,28.0124,-89.0597,0.0,26.4,11111222
Shell,ioos:station:wmo:42902:1,2023-06-02T10:01:00Z,28.0124,-89.0597,0.0,26.4,11111222
Shell,ioos:station:wmo:42902:1,2023-06-02T10:11:00Z,28.0124,-89.0597,0.0,26.5,11111222
Shell,ioos:station:wmo:42902:1,2023-06-02T10:21:00Z,28.0124,-89.0597,0.0,26.4,11111222
Shell,ioos:station:wmo:42902:1,2023-06-02T10:31:00Z,28.0124,-89.0597,0.0,26.4,11111222
Shell,ioos:station:wmo:42902:1,2023-06-02T10:41:00Z,28.0124,-89.0597,0.0,26.4,11111222
Shell,ioos:station:wmo:42902:1,2023-06-02T10:51:00Z,28.0124,-89.0597,0.0,26.4,11111222
Shell,ioos:station:wmo:42902:1,2023-06-02T11:01:00Z,28.0124,-89.0597,0.1,26.4,11111222
Shell,ioos:station:wmo:42902:1,2023-06-02T11:11:00Z,28.0124,-89.0597,0.1,26.5,11111222
Shell,ioos:station:wmo:42902:1,2023-06-02T11:21:00Z,28.0124,-89.0597,0.1,26.5,11111222
Shell,ioos:station:wmo:42902:1,2023-06-02T11:31:00Z,28.0124,-89.0597,0.1,26.5,11111222
Shell,ioos:station:wmo:42902:1,2023-06-02T11:41:00Z,28.0124,-89.0597,0.1,26.5,11111222
Shell,ioos:station:wmo:42902:1,2023-06-02T11:51:00Z,28.0124,-89.0597,0.1,26.4,11111222
Shell,ioos:station:wmo:42902:1,2023-06-02T12:02:00Z,28.0124,-89.0597,0.1,26.5,11111222
Shell,ioos:station:wmo:42902:1,2023-06-02T12:12:00Z,28.0124,-89.0597,0.1,26.5,11111222
Shell,ioos:station:wmo:42902:1,2023-06-02T12:22:00Z,28.0124,-89.0597,0.0,26.4,11111222
Shell,ioos:station:wmo:42902:1,2023-06-02T12:32:00Z,28.0124,-89.0597,0.0,26.4,11111222
Shell,ioos:station:wmo:42902:1,2023-06-02T12:42:00Z,28.0124,-89.0597,0.1,26.4,11111222
Shell,ioos:station:wmo:42902:1,2023-06-02T12:52:00Z,28.0124,-89.0597,0.0,26.2,11111222
Shell,ioos:station:wmo:42902:1,2023-06-02T13:02:00Z,28.0124,-89.0597,0.1,26.3,11111222
Shell,ioos:station:wmo:42902:1,2023-06-02T13:12:00Z,28.0124,-89.0597,0.1,26.4,11111222
Shell,ioos:station:wmo:42902:1,2023-06-02T13:22:00Z,28.0124,-89.0597,0.0,26.4,11111222
Shell,ioos:station:wmo:42902:1,2023-06-02T13:32:00Z,28.0124,-89.0597,0.0,26.3,11111222
Shell,ioos:station:wmo:42902:1,2023-06-02T13:42:00Z,28.0124,-89.0597,0.1,26.3,11111222
Shell,ioos:station:wmo:42902:1,2023-06-02T13:52:00Z,28.0124,-89.0597,0.0,26.3,11111222
Shell,ioos:station:wmo:42902:1,2023-06-02T14:02:00Z,28.0124,-89.0597,0.0,26.2,11111222
Shell,ioos:station:wmo:42902:1,2023-06-02T14:12:00Z,28.0124,-89.0597,0.1,26.3,11111222
Shell,ioos:station:wmo:42902:1,2023-06-02T14:22:00Z,28.0124,-89.0597,0.1,26.3,11111222
Shell,ioos:station:wmo:42902:1,2023-06-02T14:32:00Z,28.0124,-89.0597,0.1,26.4,11111222
Shell,ioos:station:wmo:42902:1,2023-06-02T14:42:00Z,28.0124,-89.0597,0.1,26.4,11111222
Shell,ioos:station:wmo:42902:1,2023-06-02T14:52:00Z,28.0124,-89.0597,0.1,26.4,11111222
Shell,ioos:station:wmo:42902:1,2023-06-02T15:02:00Z,28.0124,-89.0597,0.1,26.4,11111222
Shell,ioos:station:wmo:42902:1,2023-06-02T15:12:00Z,28.0124,-89.0597,0.1,26.4,11111222
Shell,ioos:station:wmo:42902:1,2023-06-02T15:22:00Z,28.0124,-89.0597,0.1,26.4,11111222
Shell,ioos:station:wmo:42902:1,2023-06-02T15:32:00Z,28.0124,-89.0597,0.1,26.4,11111222
Shell,ioos:station:wmo:42902:1,2023-06-02T15:42:00Z,28.0124,-89.0597,0.1,26.5,11111222
Shell,ioos:station:wmo:42902:1,2023-06-02T15:52:00Z,28.0124,-89.0597,0.1,26.5,11111222
Shell,ioos:station:wmo:42902:1,2023-06-02T16:02:00Z,28.0124,-89.0597,0.1,26.5,11111222
Shell,ioos:station:wmo:42902:1,2023-06-02T16:12:00Z,28.0124,-89.0597,0.1,26.4,11111222
Shell,ioos:station:wmo:42902:1,2023-06-02T16:22:00Z,28.0124,-89.0597,0.0,26.4,11111222
Shell,ioos:station:wmo:42902:1,2023-06-02T16:32:00Z,28.0124,-89.0597,0.0,26.4,11111222
Shell,ioos:station:wmo:42902:1,2023-06-02T16:42:00Z,28.0124,-89.0597,0.0,26.4,11111222
Shell,ioos:station:wmo:42902:1,2023-06-02T16:52:00Z,28.0124,-89.0597,0.0,26.4,11111222
Shell,ioos:station:wmo:42902:1,2023-06-02T17:02:00Z,28.0124,-89.0597,0.0,26.5,11111222
Shell,ioos:station:wmo:42902:1,2023-06-02T17:12:00Z,28.0124,-89.0597,0.0,26.5,11111222
Shell,ioos:station:wmo:42902:1,2023-06-02T17:22:00Z,28.0124,-89.0597,0.0,26.4,11111222
Shell,ioos:station:wmo:42902:1,2023-06-02T17:32:00Z,28.0124,-89.0597,0.0,26.4,11111222
Shell,ioos:station:wmo:42902:1,2023-06-02T17:42:00Z,28.0124,-89.0597,0.0,26.4,11111222
Shell,ioos:station:wmo:42902:1,2023-06-02T17:52:00Z,28.0124,-89.0597,0.0,26.5,11111222
Shell,ioos:station:wmo:42902:1,2023-06-02T18:02:00Z,28.0124,-89.0597,0.0,26.5,11111222
Shell,ioos:station:wmo:42902:1,2023-06-02T18:12:00Z,28.0124,-89.0597,0.0,26.4,11111222
Shell,ioos:station:wmo:42902:1,2023-06-02T18:22:00Z,28.0124,-89.0597,0.0,26.4,11111222
Shell,ioos:station:wmo:42902:1,2023-06-02T18:32:00Z,28.0124,-89.0597,0.0,26.4,11111222
Shell,ioos:station:wmo:42902:1,2023-06-02T18:42:00Z,28.0124,-89.0597,0.0,26.5,11111222
Shell,ioos:station:wmo:42902:1,2023-06-02T18:52:00Z,28.0124,-89.0597,0.0,26.5,11111222
Shell,ioos:station:wmo:42902:1,2023-06-02T19:02:00Z,28.0124,-89.0597,0.0,26.5,11111222
Shell,ioos:station:wmo:42902:1,2023-06-02T19:12:00Z,28.0124,-89.0597,0.0,26.5,11111222
Shell,ioos:station:wmo:42902:1,2023-06-02T19:23:00Z,28.0124,-89.0597,0.0,26.5,11111222
Shell,ioos:station:wmo:42902:1,2023-06-02T19:33:00Z,28.0124,-89.0597,0.0,26.5,11111222
Shell,ioos:station:wmo:42902:1,2023-06-02T19:43:00Z,28.0124,-89.0597,0.0,26.5,11111222
Shell,ioos:station:wmo:42902:1,2023-06-02T19:53:00Z,28.0124,-89.0597,0.0,26.5,11111222
Shell,ioos:station:wmo:42902:1,2023-06-02T20:03:00Z,28.0124,-89.0597,0.0,26.5,11111222
Shell,ioos:station:wmo:42902:1,2023-06-02T20:13:00Z,28.0124,-89.0597,0.0,26.5,11111222
Shell,ioos:station:wmo:42902:1,2023-06-02T20:23:00Z,28.0124,-89.0597,0.0,26.5,11111222
Shell,ioos:station:wmo:42902:1,2023-06-02T20:33:00Z,28.0124,-89.0597,0.0,26.5,11111222
Shell,ioos:station:wmo:42902:1,2023-06-02T20:43:00Z,28.0124,-89.0597,0.1,26.6,11111222
Shell,ioos:station:wmo:42902:1,2023-06-02T20:53:00Z,28.0124,-89.0597,0.1,26.6,11111222
Shell,ioos:station:wmo:42902:1,2023-06-02T21:03:00Z,28.0124,-89.0597,0.0,26.6,11111222
Shell,ioos:station:wmo:42902:1,2023-06-02T21:13:00Z,28.0124,-89.0597,0.0,26.6,11111222
Shell,ioos:station:wmo:42902:1,2023-06-02T21:23:00Z,28.0124,-89.0597,0.0,26.6,11111222